EN

Hourly Weather Altomonte

Today, 22 January, Friday

Time Temperature Precipitation Wind Pressure Humidity
00:00 +9°C° 0 mm 2 mps 738 mmHg 79%
01:00 +9°C° 0 mm 2 mps 738 mmHg 80%
02:00 +8°C° 0 mm 2 mps 738 mmHg 82%
03:00 +8°C° 0 mm 2 mps 737 mmHg 83%
04:00 +8°C° 0 mm 3 mps 737 mmHg 85%
05:00 +8°C° 0.1 mm 3 mps 737 mmHg 86%
06:00 +8°C° 0.1 mm 3 mps 736 mmHg 87%
07:00 +8°C° 0.1 mm 3 mps 736 mmHg 88%
08:00 +9°C° 0.1 mm 3 mps 736 mmHg 84%
09:00 +10°C° 0.1 mm 3 mps 736 mmHg 81%
10:00 +11°C° 0.1 mm 3 mps 737 mmHg 77%
11:00 +12°C° 0 mm 3 mps 736 mmHg 73%
12:00 +13°C° 0 mm 4 mps 736 mmHg 69%
13:00 +13°C° 0 mm 4 mps 735 mmHg 66%
14:00 +13°C° 0 mm 3 mps 735 mmHg 68%
15:00 +12°C° 0 mm 3 mps 734 mmHg 71%
16:00 +13°C° 0 mm 2 mps 734 mmHg 74%
17:00 +12°C° 0 mm 2 mps 733 mmHg 76%
18:00 +10°C° 0 mm 2 mps 733 mmHg 77%
19:00 +9°C° 0 mm 2 mps 733 mmHg 78%
20:00 +9°C° 0 mm 2 mps 733 mmHg 78%
21:00 +9°C° 0 mm 3 mps 732 mmHg 78%
22:00 +9°C° 0 mm 3 mps 732 mmHg 78%
23:00 +8°C° 0 mm 3 mps 732 mmHg 79%

Tomorrow, 23 January, Saturday

Time Temperature Precipitation Wind Pressure Humidity
00:00 +8°C° 0 mm 3 mps 731 mmHg 81%
01:00 +7°C° 0 mm 4 mps 730 mmHg 83%
02:00 +8°C° 0 mm 3 mps 730 mmHg 81%
03:00 +9°C° 0 mm 3 mps 729 mmHg 79%
04:00 +9°C° 0 mm 3 mps 729 mmHg 77%
05:00 +8°C° 1.1 mm 4 mps 728 mmHg 82%
06:00 +8°C° 1.1 mm 4 mps 728 mmHg 87%
07:00 +8°C° 1.1 mm 5 mps 728 mmHg 91%
08:00 +8°C° 3.2 mm 5 mps 728 mmHg 92%
09:00 +8°C° 3.2 mm 5 mps 728 mmHg 92%
10:00 +7°C° 3.2 mm 6 mps 728 mmHg 93%
11:00 +8°C° 1 mm 6 mps 728 mmHg 87%
12:00 +9°C° 1 mm 6 mps 728 mmHg 81%
13:00 +9°C° 1 mm 6 mps 728 mmHg 75%
14:00 +9°C° 0.1 mm 6 mps 728 mmHg 75%
15:00 +9°C° 0.1 mm 6 mps 728 mmHg 74%
16:00 +8°C° 0.1 mm 6 mps 728 mmHg 74%
17:00 +8°C° 0.5 mm 6 mps 728 mmHg 78%
18:00 +7°C° 0.5 mm 5 mps 728 mmHg 82%
19:00 +7°C° 0.5 mm 5 mps 729 mmHg 87%
20:00 +7°C° 0.8 mm 5 mps 729 mmHg 87%
21:00 +7°C° 0.8 mm 5 mps 729 mmHg 87%
22:00 +7°C° 0.8 mm 5 mps 729 mmHg 88%
23:00 +7°C° 0.6 mm 6 mps 729 mmHg 87%

Day after tomorrow, 24 January, Sunday

Time Temperature Precipitation Wind Pressure Humidity
00:00 +7°C° 0.6 mm 6 mps 729 mmHg 87%
01:00 +6°C° 0.6 mm 7 mps 728 mmHg 86%
02:00 +6°C° 0.6 mm 7 mps 728 mmHg 86%
03:00 +6°C° 0.6 mm 7 mps 728 mmHg 86%
04:00 +6°C° 0.6 mm 7 mps 728 mmHg 87%
05:00 +6°C° 0.3 mm 7 mps 728 mmHg 86%
06:00 +8°C° 0.3 mm 6 mps 728 mmHg 86%
07:00 +8°C° 0.3 mm 6 mps 728 mmHg 85%
08:00 +8°C° 1.6 mm 5 mps 728 mmHg 88%
09:00 +8°C° 1.6 mm 5 mps 728 mmHg 91%
10:00 +8°C° 1.6 mm 5 mps 728 mmHg 94%
11:00 +8°C° 3.5 mm 5 mps 727 mmHg 94%
12:00 +8°C° 3.5 mm 5 mps 726 mmHg 93%
13:00 +8°C° 3.5 mm 5 mps 725 mmHg 93%
14:00 +8°C° 2.7 mm 5 mps 724 mmHg 93%
15:00 +8°C° 2.7 mm 6 mps 723 mmHg 93%
16:00 +8°C° 2.7 mm 6 mps 722 mmHg 94%
17:00 +8°C° 3.5 mm 7 mps 722 mmHg 93%
18:00 +7°C° 3.5 mm 8 mps 721 mmHg 92%
19:00 +8°C° 3.5 mm 9 mps 721 mmHg 91%
20:00 +8°C° 1 mm 9 mps 722 mmHg 89%
21:00 +7°C° 1 mm 10 mps 722 mmHg 87%
22:00 +7°C° 1 mm 10 mps 723 mmHg 86%
23:00 +7°C° 0.2 mm 10 mps 723 mmHg 85%

25 January, Monday

Time Temperature Precipitation Wind Pressure Humidity
00:00 +6°C° 0.2 mm 10 mps 724 mmHg 84%
01:00 +6°C° 0.2 mm 10 mps 725 mmHg 83%
02:00 +6°C° 0.3 mm 9 mps 726 mmHg 83%
03:00 +6°C° 0.3 mm 9 mps 726 mmHg 82%
04:00 +6°C° 0.3 mm 8 mps 727 mmHg 82%
05:00 +6°C° 0.2 mm 8 mps 727 mmHg 81%
06:00 +6°C° 0.2 mm 8 mps 728 mmHg 81%
07:00 +5°C° 0.2 mm 8 mps 728 mmHg 81%
08:00 +6°C° 0.4 mm 8 mps 728 mmHg 82%
09:00 +6°C° 0.4 mm 8 mps 729 mmHg 83%
10:00 +6°C° 0.4 mm 8 mps 729 mmHg 83%
11:00 +6°C° 1.5 mm 8 mps 729 mmHg 83%
12:00 +6°C° 1.5 mm 8 mps 729 mmHg 83%
13:00 +6°C° 1.5 mm 8 mps 729 mmHg 83%
14:00 +5°C° 0.1 mm 9 mps 729 mmHg 79%
15:00 +5°C° 0.1 mm 9 mps 730 mmHg 75%
16:00 +5°C° 0.1 mm 10 mps 730 mmHg 71%
17:00 +5°C° 0.1 mm 9 mps 730 mmHg 72%
18:00 +4°C° 0.1 mm 8 mps 731 mmHg 73%
19:00 +4°C° 0.1 mm 7 mps 732 mmHg 74%
20:00 +4°C° 0.1 mm 6 mps 732 mmHg 76%
21:00 +5°C° 0.1 mm 5 mps 733 mmHg 78%
22:00 +5°C° 0.1 mm 5 mps 733 mmHg 80%
23:00 +4°C° 0.1 mm 4 mps 733 mmHg 80%

26 January, Tuesday

Time Temperature Precipitation Wind Pressure Humidity
00:00 +4°C° 0.1 mm 4 mps 733 mmHg 81%
01:00 +4°C° 0.1 mm 3 mps 734 mmHg 81%
02:00 +4°C° 0 mm 3 mps 734 mmHg 81%
03:00 +5°C° 0 mm 2 mps 734 mmHg 82%
04:00 +4°C° 0 mm 2 mps 734 mmHg 82%
05:00 +4°C° 0 mm 2 mps 734 mmHg 81%
06:00 +5°C° 0 mm 1 mps 734 mmHg 80%
07:00 +5°C° 0 mm 1 mps 734 mmHg 79%
08:00 +6°C° 0 mm 1 mps 735 mmHg 75%
09:00 +7°C° 0 mm 1 mps 735 mmHg 72%
10:00 +8°C° 0 mm 1 mps 736 mmHg 68%
11:00 +9°C° 0.1 mm 1 mps 736 mmHg 64%
12:00 +9°C° 0.1 mm 1 mps 736 mmHg 61%
13:00 +10°C° 0.1 mm 1 mps 736 mmHg 57%
14:00 +9°C° 0.1 mm 1 mps 736 mmHg 59%
15:00 +9°C° 0.1 mm 1 mps 736 mmHg 61%
16:00 +8°C° 0.1 mm 1 mps 736 mmHg 63%
17:00 +7°C° 0 mm 1 mps 736 mmHg 67%
18:00 +6°C° 0 mm 1 mps 736 mmHg 71%
19:00 +5°C° 0 mm 1 mps 736 mmHg 76%
20:00 +5°C° 0 mm 1 mps 737 mmHg 76%
21:00 +4°C° 0 mm 1 mps 737 mmHg 75%
22:00 +4°C° 0 mm 1 mps 737 mmHg 75%
23:00 +4°C° 0 mm 1 mps 737 mmHg 74%

27 January, Wednesday

Time Temperature Precipitation Wind Pressure Humidity
00:00 +4°C° 0 mm 1 mps 737 mmHg 74%
01:00 +4°C° 0 mm 1 mps 737 mmHg 73%
02:00 +4°C° 0 mm 1 mps 737 mmHg 71%
03:00 +3°C° 0 mm 1 mps 737 mmHg 70%
04:00 +3°C° 0 mm 1 mps 737 mmHg 69%
05:00 +4°C° 0 mm 1 mps 737 mmHg 70%
06:00 +4°C° 0 mm 1 mps 737 mmHg 71%
07:00 +3°C° 0 mm 2 mps 737 mmHg 73%
08:00 +4°C° 0 mm 2 mps 737 mmHg 68%
09:00 +6°C° 0 mm 2 mps 737 mmHg 64%
10:00 +7°C° 0 mm 2 mps 737 mmHg 59%
11:00 +8°C° 0 mm 2 mps 737 mmHg 57%
12:00 +8°C° 0 mm 2 mps 737 mmHg 54%
13:00 +9°C° 0 mm 3 mps 736 mmHg 52%
14:00 +8°C° 0 mm 2 mps 736 mmHg 56%
15:00 +8°C° 0 mm 2 mps 736 mmHg 60%
16:00 +7°C° 0 mm 2 mps 735 mmHg 65%
17:00 +8°C° 0 mm 1 mps 735 mmHg 67%
18:00 +7°C° 0 mm 1 mps 735 mmHg 69%
19:00 +6°C° 0 mm 1 mps 735 mmHg 72%
20:00 +6°C° 0.2 mm 1 mps 735 mmHg 75%
21:00 +6°C° 0.2 mm 1 mps 736 mmHg 78%
22:00 +5°C° 0.2 mm 2 mps 736 mmHg 81%
23:00 +5°C° 0 mm 2 mps 736 mmHg 82%
Show more